Flag for U.S.A. Weather past 2 weeks in Duluth, Minnesota, U.S.A.

Now
52 °F

Overcast.


Feels Like: 48 °F
Forecast: 42 / 52 °F
Wind: 10 mph from North

Location: Sky Harbor Airport

Current Time: Oct 20, 2014 at 6:33:05 PM

Latest Report: Oct 20, 2014 at 5:53 PM


Visibility: 10 mi

Pressure: 30.06 "Hg

Humidity: 67%

Dew point: 41 °F

Location of DuluthLocation

Historic Weather in Duluth — Graph

°F

Duluth temperature yesterday

Maximum temperature yesterday: 63 °F (at 3:14 PM)
Minimum temperature yesterday: 37 °F (at 1:54 AM)
Average temperature yesterday: 50 °F

Past Weeks' High & Low Weather Summary

 TemperatureHumidityPressure
High63 °F (Oct 12, 1:54 PM)100% (Oct 13, 5:34 PM)30.26 "Hg (Oct 13, 5:34 PM)
Low32 °F (Oct 11, 4:53 AM)34% (Oct 12, 3:34 PM)29.00 "Hg (Oct 16, 6:13 PM)
Average47 °F73%29.89 "Hg
* Reported Oct 5 5:13 PM — Oct 20 5:33 PM, Duluth, Weather by CustomWeather, © 2014

Note: Actual official high and low records may vary slightly from our data, if they occured in-between our weather recording intervals... More about our weather records

Advertising

Duluth weather history for previous 24 hours

 ConditionsComfort  
Time TempWeatherWind HumidityBarometerVisibility
5:33 PM
Oct 20
52 °FOvercast.9 mph67%30.06 "Hg10 mi
5:14 PM52 °FOvercast.12 mph72%30.05 "Hg10 mi
4:53 PM52 °FOvercast.6 mph72%30.04 "Hg10 mi
4:33 PM52 °FOvercast.12 mph72%30.03 "Hg10 mi
3:53 PM52 °FOvercast.8 mph77%30.02 "Hg10 mi
3:34 PM52 °FOvercast.7 mph72%30.01 "Hg10 mi
3:13 PM52 °FOvercast.9 mph72%30.01 "Hg10 mi
2:53 PM52 °FOvercast.7 mph72%30.01 "Hg10 mi
2:34 PM52 °FOvercast.7 mph72%30.01 "Hg10 mi
2:13 PM52 °FMore clouds than sun.7 mph77%30.01 "Hg10 mi
1:54 PM52 °FOvercast.7 mph77%30.01 "Hg10 mi
1:33 PM52 °FOvercast.9 mph77%30.01 "Hg10 mi
1:13 PM52 °FMostly cloudy.7 mph77%30.01 "Hg10 mi
12:53 PM52 °FOvercast.6 mph77%30.01 "Hg10 mi
12:33 PM52 °FOvercast.3 mph77%30.00 "Hg10 mi
12:14 PM52 °FOvercast.8 mph77%30.00 "Hg10 mi
11:53 AM52 °FOvercast.8 mph77%29.99 "Hg10 mi
11:33 AM52 °FOvercast.7 mph77%29.99 "Hg10 mi
11:14 AM52 °FOvercast.8 mph77%29.99 "Hg10 mi
10:53 AM52 °FOvercast.9 mph77%29.98 "Hg10 mi
10:33 AM50 °FOvercast.8 mph82%29.98 "Hg10 mi
10:13 AM50 °FOvercast.8 mph82%29.98 "Hg10 mi
9:54 AM50 °FOvercast.8 mph76%29.98 "Hg10 mi
9:33 AM50 °FOvercast.8 mph76%29.97 "Hg10 mi
9:13 AM48 °FOvercast.8 mph82%29.96 "Hg10 mi
8:53 AM48 °FOvercast.9 mph82%29.96 "Hg10 mi
8:33 AM48 °FOvercast.10 mph82%29.95 "Hg10 mi
8:14 AM48 °FPassing clouds.10 mph82%29.94 "Hg10 mi
7:53 AM48 °FPassing clouds.12 mph82%29.94 "Hg10 mi
7:33 AM48 °FClear.13 mph82%29.93 "Hg10 mi
6:53 AM48 °FClear.14 mph87%29.92 "Hg10 mi
6:33 AM48 °FClear.12 mph87%29.91 "Hg10 mi
6:14 AM48 °FClear.8 mph87%29.91 "Hg10 mi
5:53 AM48 °FClear.3 mph82%29.90 "Hg10 mi
5:33 AM46 °FClear.3 mph87%29.89 "Hg10 mi
5:14 AM48 °FClear.3 mph82%29.89 "Hg10 mi
4:53 AM50 °FClear.No wind76%29.89 "Hg10 mi
4:33 AM52 °FClear.No wind77%29.88 "Hg10 mi
4:13 AM50 °FClear.5 mph82%29.88 "Hg10 mi
3:54 AM48 °FClear.3 mph87%29.87 "Hg10 mi
3:33 AM50 °FClear.6 mph82%29.86 "Hg10 mi
3:13 AM50 °FClear.10 mph82%29.85 "Hg10 mi
2:54 AM50 °FClear.9 mph82%29.85 "Hg10 mi
2:33 AM50 °FClear.8 mph82%29.85 "Hg10 mi
2:13 AM52 °FPassing clouds.5 mph77%29.84 "Hg10 mi
1:54 AM52 °FOvercast.7 mph77%29.84 "Hg10 mi
1:33 AM52 °FPassing clouds.7 mph77%29.83 "Hg10 mi
1:13 AM54 °FClear.5 mph72%29.83 "Hg10 mi
12:54 AM54 °FPassing clouds.3 mph72%29.83 "Hg10 mi
12:33 AM55 °FPassing clouds.7 mph67%29.83 "Hg10 mi
10:13 PM
Oct 19
57 °FPassing clouds.10 mph63%29.80 "Hg10 mi
9:53 PM57 °FPassing clouds.8 mph63%29.79 "Hg10 mi
9:34 PM59 °FPassing clouds.12 mph59%29.79 "Hg10 mi
9:13 PM57 °FPassing clouds.9 mph63%29.78 "Hg10 mi
8:53 PM57 °FPassing clouds.9 mph67%29.77 "Hg10 mi
8:33 PM57 °FPassing clouds.9 mph67%29.76 "Hg10 mi
8:13 PM57 °FPassing clouds.12 mph67%29.76 "Hg10 mi
7:54 PM57 °FPassing clouds.14 mph67%29.76 "Hg10 mi
7:33 PM57 °FPassing clouds.6 mph67%29.75 "Hg10 mi
7:13 PM55 °FScattered clouds.9 mph77%29.74 "Hg10 mi
6:53 PM57 °FScattered clouds.8 mph67%29.74 "Hg10 mi
6:33 PM57 °FSunny.7 mph67%29.73 "Hg10 mi
6:13 PM61 °FSunny.6 mph59%29.72 "Hg10 mi
Weather by CustomWeather, © 2014

See weather overviewHow to use our weather pages